This demonstration page uses our WeatherBlox Daily Observations layout. Learn more.

Left ArrowRight Arrow

31.31129, -92.44514

Hourly Observations for December 24, 2021

Temp ( °F °C ) Dew Point ( °F °C ) Humidity (%) Winds ( mph kmh ) Pressure ( in mb ) Visibility ( mi km ) Precip ( " mm )
12:53 am 00:53 Clear 55 12.8 52 11.1 90 90 SE 7 11 30.04 1017 10 16 0.00 0.00
1:53 am 01:53 Clear 54 12.2 52 11.1 93 93 SE 8 13 30.05 1018 9 14 0.00 0.00
2:53 am 02:53 Clear 55 12.8 53 11.7 93 93 SSE 7 11 30.02 1017 7 11 0.00 0.00
3:53 am 03:53 Mostly Clear 54 12.2 52 11.1 93 93 ESE 8 13 30.03 1017 7 11 0.00 0.00
4:53 am 04:53 Partly Cloudy with Mist and Fog 53 11.7 52 11.1 96 96 SE 5 7 30.02 1017 6 10 0.00 0.00
5:53 am 05:53 Mostly Clear with Mist and Fog 53 11.7 52 11.1 96 96 ESE 8 13 30.02 1017 4 6 0.00 0.00
6:53 am 06:53 Clear with Mist and Fog 53 11.7 52 11.1 96 96 SE 7 11 30.02 1017 4 6 0.00 0.00
7:15 am 07:15 Partly Cloudy with Mist and Fog 54 12.2 52 11.1 93 93 SE 7 11 30.01 1016 3 4 0.00 0.00
7:30 am 07:30 Mostly Cloudy with Mist and Fog 54 12.2 53 11.7 97 97 SE 6 9 30.01 1016 2 3 0.00 0.00
7:38 am 07:38 Mostly Cloudy with Mist and Fog 55 12.8 53 11.7 93 93 SE 7 11 30.02 1017 1 2 0.00 0.00
7:45 am 07:45 Cloudy with Fog 55 12.8 53 11.7 93 93 SE 6 9 30.02 1017 0 0 0.00 0.00
7:53 am 07:53 Mostly Cloudy with Fog 55 12.8 54 12.2 96 96 SE 6 9 30.03 1017 0 0 0.00 0.00
8:04 am 08:04 Cloudy with Mist and Fog 56 13.3 54 12.2 93 93 SE 7 11 30.03 1017 1 1 0.00 0.00
8:10 am 08:10 Cloudy with Mist and Fog 56 13.3 54 12.2 93 93 SE 7 11 30.03 1017 2 3 0.00 0.00
8:19 am 08:19 Mostly Cloudy with Mist and Fog 57 13.9 56 13.3 96 96 SSE 8 13 30.03 1017 3 5 0.00 0.00
8:53 am 08:53 Partly Cloudy with Mist and Fog 59 15 57 13.9 93 93 SSE 9 15 30.05 1018 6 10 0.00 0.00
9:53 am 09:53 Sunny 68 20 61 16.1 78 78 S 8 13 30.03 1017 10 16 0.00 0.00
10:53 am 10:53 Mostly Sunny 73 22.8 62 16.7 69 69 SSW 15 24 30.02 1017 10 16 0.00 0.00
11:53 am 11:53 Mostly Cloudy 75 23.9 62 16.7 64 64 SSW 16 26 29.99 1016 10 16 0.00 0.00
12:53 pm 12:53 Partly Cloudy 77 25 61 16.1 58 58 SSW 21 33 29.96 1015 10 16 0.00 0.00
1:53 pm 13:53 Mostly Cloudy 76 24.4 59 15 56 56 SSW 22 35 29.94 1014 10 16 0.00 0.00
2:53 pm 14:53 Mostly Cloudy 77 25 59 15 54 54 SSW 15 24 29.93 1014 10 16 0.00 0.00
3:53 pm 15:53 Partly Cloudy 75 23.9 59 15 58 58 SSW 16 26 29.94 1014 10 16 0.00 0.00
4:53 pm 16:53 Partly Cloudy 73 22.8 59 15 62 62 SSW 16 26 29.94 1014 10 16 0.00 0.00
5:53 pm 17:53 Clear 71 21.7 58 14.4 63 63 S 14 22 29.95 1014 10 16 0.00 0.00
6:53 pm 18:53 Clear 69 20.6 59 15 70 70 S 12 19 29.96 1015 10 16 0.00 0.00
7:53 pm 19:53 Clear 69 20.6 60 15.6 73 73 S 15 24 29.95 1014 10 16 0.00 0.00
8:53 pm 20:53 Clear 69 20.6 61 16.1 76 76 SSW 13 20 29.95 1014 10 16 0.00 0.00
9:53 pm 21:53 Clear 68 20 61 16.1 78 78 S 12 19 29.93 1014 10 16 0.00 0.00
10:53 pm 22:53 Clear 68 20 61 16.1 78 78 SSW 10 17 29.93 1014 10 16 0.00 0.00
11:53 pm 23:53 Clear 67 19.4 62 16.7 84 84 S 12 19 29.91 1013 10 16 0.00 0.00

Powered by AerisWeather